{"data":{"norad_id":47672,"intl_designator":"2021-012BE","name":"STARLINK-2065","alt_names":[],"object_type":"PAYLOAD","status":"ACTIVE","operator":null,"country":"US","launch_date":"2021-02-16","launch_site_code":"AFETR","launch_vehicle":null,"mission":null,"orbit_class":"UNKNOWN","rcs_meters":null,"size_class":null,"mass_kg":null,"dimensions":null,"purposes":["comms"],"wikipedia_slug":null,"has_3d_model":false,"image_url":null,"decayed_at":null,"tle_current":{"epoch":"2026-06-12T03:25:19.967808Z","epoch_age_seconds":8696995,"freshness":"OLD","line1":"1 47672U 21012BE  26163.14259222  .05924798  12285-4  80131-3 0  9999","line2":"2 47672  53.1285 252.4218 0010590 317.6369  42.3858 16.34373482295845","mean_motion":16.34373482,"eccentricity":0.001059,"inclination_deg":53.1285,"raan_deg":252.4218,"arg_perigee_deg":317.6369,"mean_anomaly_deg":42.3858,"bstar":0.00080131,"rev_number":29584,"period_min":88.107156403312,"perigee_km":173.86681535657,"apogee_km":187.75867091253,"semimajor_km":6558.9497431346,"source":"CELESTRAK","updated_at":"2026-06-12T09:01:04.850386Z"}}}